Location: Cartanal
(10.2709°N, 66.7075°W)
Time: 18:05:14
(UTC+00:00)

Daily predictions for brighter satellites

Satellite Brightness Start Highest point End
(mag) Time Altitude Azimuth Time Altitude Azimuth Time Altitude Azimuth
Cosmos 1733 3.1 23:08:37 10° N 23:12:22 78° E 23:16:08 10° S
USA 267 3.8 23:06:47 10° ENE 23:12:39 36° SE 23:18:31 10° S
BREEZE-M DEB (TANK) 4.4 23:08:36 10° NW 23:12:44 72° SW 23:24:38 10° SE
Cosmos 2242 Rocket 3.6 23:08:17 10° S 23:12:46 90° NNW 23:17:12 10° N
Cosmos 1626 4.1 23:11:28 10° ESE 23:12:47 12° E 23:14:05 10° ENE
Cosmos 2278 Rocket 2.8 23:08:01 10° N 23:13:12 37° ENE 23:18:22 10° SE
GPS 2-14 Rocket1 3.6 23:10:01 10° W 23:13:58 50° NNW 23:17:56 10° ENE
Meteor 2-10 4.1 23:12:40 10° N 23:17:46 60° E 23:23:03 10° SSE
Cosmos 1707 3.2 23:15:53 10° SSE 23:19:26 38° E 23:22:59 10° NNE
Cosmos 1842 3.7 23:19:33 10° SSW 23:23:20 65° W 23:27:07 10° N
SL-16 R/B 3.7 23:19:55 10° SW 23:25:11 41° WNW 23:30:30 10° N
Cosmos 1766 3.5 23:22:29 10° N 23:26:15 47° E 23:29:59 10° SSE
USA 229 DEB 4.3 23:20:53 10° NNW 23:28:44 74° WSW 23:36:41 10° SSE
USA 229 4.3 23:20:59 10° NNW 23:28:49 75° WSW 23:36:45 10° SSE
GPS 2-17 Rocket1 2.9 23:28:06 10° WSW 23:32:32 81° SSE 23:37:06 10° ENE
Ariane H10 3.9 23:31:38 10° WSW 23:34:43 23° SSW 23:36:19 14° SE
Cosmos 405 Rocket 3.3 23:32:01 10° SSE 23:35:39 38° E 23:39:19 10° NNE
Centaur D-1A AC-35 4.1 23:34:04 10° W 23:38:57 24° SW 23:41:53 10° SSE
CZ-4C R/B 3.3 23:40:12 10° N 23:43:31 66° W 23:46:54 10° SSW
YAOGAN 1 2.5 23:39:13 10° SSE 23:43:32 89° ENE 23:47:49 10° N
X-37B 1.9 23:41:28 10° WSW 23:44:04 36° NW 23:46:39 10° NNE
Cosmos 1943 3.2 23:43:16 10° S 23:48:51 59° ESE 23:54:24 10° NNE
Feng Yun 1-1 Rocket 4.1 23:45:15 10° SSE 23:50:35 69° ENE 23:55:57 10° N
Cosmos 2266 Rocket 4.0 23:45:02 10° N 23:50:58 59° E 23:56:59 10° SSE
Cosmos 1603 3.7 23:47:30 10° S 23:52:59 55° ESE 23:58:29 10° NNE
